Regional Weather Roundup
Issued by NWS

Home | Current Version | Previous Version | Text Only | Print | Product List | Glossary On
Versions: 1 2 3 4 5 6 7 8 9 10 11 12 13 14 15 16 17 18 19 20 21 22 23 24 25 26 27 28 29 30 31 32 33 34 35 36 37 38 39 40 41 42 43 44 45 46 47 48 49 50
000
ASUS43 KTOP 241759
RWRKS

WEATHER ROUNDUP FOR KANSAS
NATIONAL WEATHER SERVICE GOODLAND KS
100 PM CDT WED MAY 24 2017

NOTE:  "FAIR" INDICATES FEW OR NO CLOUDS BELOW 12,000 FEET WITH NO
SIGNIFICANT WEATHER AND/OR OBSTRUCTIONS TO VISIBILITY.

KSZ001>006-013>018-027>032-041>047-241900-
NORTHWEST KANSAS

CITY           SKY/WX    TMP DP  RH WIND       PRES   REMARKS
GOODLAND       SUNNY     64  42  44 S10G17    29.77F
6HR MIN TEMP:  35; 6HR MAX TEMP:  64;

HILL CITY      SUNNY     60  40  47 VRB3      29.79F
6HR MIN TEMP:  41; 6HR MAX TEMP:  62;

RUSSELL        MOSUNNY   60  43  53 VRB6      29.79F
6HR MIN TEMP:  42; 6HR MAX TEMP:  60;

$$

KSZ061>065-074>080-084>089-241900-
SOUTHWEST KANSAS

CITY           SKY/WX    TMP DP  RH WIND       PRES   REMARKS
DODGE CITY     SUNNY     64  41  42 VRB7      29.81F
6HR MIN TEMP:  41; 6HR MAX TEMP:  65;

ELKHART          N/A     70  42  36 S8          N/A
GARDEN CITY    SUNNY     66  38  35 SW8       29.80F
6HR MIN TEMP:  35; 6HR MAX TEMP:  66;

GREAT BEND     PTSUNNY   59  45  59 N9        29.81F
LIBERAL        SUNNY     67  41  38 S7        29.81F
$$

KSZ066>073-081>083-090>101-241900-
SOUTHEAST KANSAS

CITY           SKY/WX    TMP DP  RH WIND       PRES   REMARKS
CHANUTE        MOSUNNY   66  48  52 N14G22    29.73S
6HR MIN TEMP:  50; 6HR MAX TEMP:  67;

COFFEYVILLE    PTSUNNY   65  49  56 NW16G22   29.74F
6HR MIN TEMP:  51; 6HR MAX TEMP:  66;

HUTCHINSON     CLOUDY    61  43  51 NW7       29.79F
6HR MIN TEMP:  45; 6HR MAX TEMP:  63;

MEDICINE LODGE   N/A     65  41  41 N9        29.80F
PARSONS        CLOUDY    62  47  57 NW14      29.75S
6HR MIN TEMP:  49; 6HR MAX TEMP:  66;

WICHITA INTL   PTSUNNY   62  44  51 NW14G20   29.79F
6HR MIN TEMP:  48; 6HR MAX TEMP:  63;

WICHITA JABRA  CLOUDY    62  44  51 NW13      29.78F
6HR MIN TEMP:  47; 6HR MAX TEMP:  62;

WINFIELD       PTSUNNY   63  46  54 W9        29.80F
6HR MIN TEMP:  47; 6HR MAX TEMP:  64;

$$

KSZ007>012-019>026-033>040-048>060-102>105-241900-
NORTHEAST KANSAS

CITY           SKY/WX    TMP DP  RH WIND       PRES   REMARKS
CONCORDIA      PTSUNNY   61  47  59 NW10      29.77F
6HR MIN TEMP:  45; 6HR MAX TEMP:  62;

EMPORIA        CLOUDY    62  46  55 N8G17     29.74F
6HR MIN TEMP:  48; 6HR MAX TEMP:  63;

LAWRENCE       PTSUNNY   66  52  60 NW17      29.70F
6HR MIN TEMP:  50; 6HR MAX TEMP:  66;

MANHATTAN      CLOUDY    63  46  54 NW8       29.75F
6HR MIN TEMP:  47; 6HR MAX TEMP:  65;

OLATHE IND     CLOUDY    60  48  64 N18       29.71S
6HR MIN TEMP:  49; 6HR MAX TEMP:  61;

OLATHE EXE     PTSUNNY   60  49  66 N17G23    29.69F
6HR MIN TEMP:  48; 6HR MAX TEMP:  61;

SALINA         PTSUNNY   64  44  48 NW7       29.79F
6HR MIN TEMP:  47; 6HR MAX TEMP:  65;

TOPEKA BILLARD PTSUNNY   64  49  57 N16G24    29.71F
6HR MIN TEMP:  49; 6HR MAX TEMP:  67;

TOPEKA FORBES  CLOUDY    65  47  52 N15       29.71F
6HR MIN TEMP:  50; 6HR MAX TEMP:  66;

$$




USA.gov is the U.S. government's official web portal to all federal, state and local government web resources and services.